Columbia, MO

6:20 AM CST on December 07, 2019 (GMT -0600)
Columbia Regional

Weather History for KCOU - October, 2019

Change the Weather History Date:

Tuesday, October 15, 2019

  Actual Average Record
Temperature  
Mean Temperature 61 °F 56 °F  
Max Temperature 72 °F 68 °F 91 °F (1897)
Min Temperature 48 °F 45 °F 29 °F (1893)
Degree Days  
Heating Degree Days 4 9  
Month to date heating degree days 112  
Since 1 July heating degree days 180  
Cooling Degree Days 0 0  
Month to date cooling degree days 15  
Year to date cooling degree days 1242  
Growing Degree Days 11 (Base 50)    
Moisture  
Dew Point 48 °F    
Average Humidity 66    
Maximum Humidity 82    
Minimum Humidity 36    
Precipitation  
Precipitation 0.02 in 0.11 in 1.22 in (1980)
Month to date precipitation 1.71  
Year to date precipitation 35.33  
Snow  
Snow 0.00 in 0.00 in 0.00 in (2015)
Month to date snowfall 0.0  
Since 1 July snowfall 0.0  
Since 1 September snowfall 0.0  
Snow Depth -    
Sea Level Pressure  
Sea Level Pressure 29.92 in    
Wind  
Wind Speed 9 mph (SW)    
Max Wind Speed 20 mph    
Max Gust Speed 31 mph    
Visibility 10 miles    
Events      
T = Trace of Precipitation, MM = Missing Value Source: NWS Daily Summary

Daily Weather History Graph

Daily Weather History Graph

Search for Another Location

Airport or City:

Astronomy

Oct. 15, 2019 Rise Set
Actual Time 7:18 AM CDT 6:30 PM CDT
Civil Twilight 6:51 AM CDT 6:57 PM CDT
Nautical Twilight 6:20 AM CDT 7:28 PM CDT
Astronomical Twilight 5:49 AM CDT 7:59 PM CDT
Moon 7:51 PM CDT (10/15) 8:48 AM CDT (10/15)
Length of Visible Light 12h 06m
Length of Day
11h 12m
Full, 97% of the Moon is Illuminated
Oct 15
Full
Oct 21
Last Quarter
Oct 27
New
Nov 4
First Quarter
Nov 12
Full

Hourly Weather History & Observations

Time (CDT) Temp. Dew Point Humidity Pressure Visibility Wind Dir Wind Speed Gust Speed Precip Events Conditions
12:54 AM 54.0 °F 44.1 °F 69% 29.94 in 10.0 mi SSE 8.1 mph - N/A   Clear
1:54 AM 55.0 °F 45.0 °F 69% 29.93 in 10.0 mi SE 6.9 mph - N/A   Scattered Clouds
2:09 AM 55.0 °F 45.0 °F 69% 29.94 in 10.0 mi SSE 6.9 mph - N/A   Overcast
2:41 AM 55.9 °F 46.0 °F 69% 29.93 in 10.0 mi SSE 8.1 mph - N/A   Overcast
2:54 AM 55.9 °F 46.0 °F 69% 29.91 in 10.0 mi SSE 9.2 mph - N/A   Overcast
3:04 AM 57.0 °F 46.0 °F 67% 29.91 in 10.0 mi SSE 10.4 mph - N/A   Overcast
3:54 AM 57.0 °F 46.9 °F 69% 29.89 in 10.0 mi South 8.1 mph - N/A   Overcast
4:54 AM 57.9 °F 48.9 °F 72% 29.88 in 10.0 mi SSE 6.9 mph - N/A   Overcast
5:54 AM 57.9 °F 50.0 °F 75% 29.89 in 10.0 mi South 6.9 mph - N/A   Overcast
6:05 AM 57.9 °F 50.0 °F 75% 29.90 in 10.0 mi South 5.8 mph - N/A   Overcast
6:54 AM 57.9 °F 51.1 °F 78% 29.90 in 10.0 mi SSE 6.9 mph - N/A   Overcast
7:49 AM 57.2 °F 51.8 °F 82% 29.90 in 10.0 mi SSE 6.9 mph - N/A   Overcast
7:54 AM 57.9 °F 52.0 °F 81% 29.88 in 10.0 mi SSE 6.9 mph - N/A   Overcast
8:54 AM 60.1 °F 54.0 °F 80% 29.89 in 10.0 mi South 6.9 mph - N/A   Overcast
9:54 AM 64.0 °F 57.9 °F 80% 29.89 in 10.0 mi SW 9.2 mph - N/A   Overcast
10:54 AM 66.9 °F 60.1 °F 79% 29.88 in 10.0 mi SW 9.2 mph - N/A   Overcast
11:54 AM 70.0 °F 62.1 °F 76% 29.86 in 9.0 mi SW 10.4 mph - N/A   Overcast
12:54 PM 70.0 °F 59.0 °F 68% 29.86 in 10.0 mi West 13.8 mph 19.6 mph N/A   Overcast
1:54 PM 70.0 °F 57.9 °F 65% 29.87 in 10.0 mi WNW 17.3 mph 24.2 mph N/A   Scattered Clouds
2:54 PM 66.0 °F 55.9 °F 70% 29.87 in 10.0 mi NW 12.7 mph 23.0 mph N/A   Mostly Cloudy
3:54 PM 62.1 °F 55.0 °F 78% 29.88 in 10.0 mi West 9.2 mph - 0.02 in   Partly Cloudy
4:54 PM 66.0 °F 46.9 °F 50% 29.89 in 9.0 mi WNW 12.7 mph - N/A   Partly Cloudy
5:54 PM 63.0 °F 45.0 °F 52% 29.91 in 10.0 mi WNW 6.9 mph - N/A   Clear
6:54 PM 61.0 °F 41.0 °F 48% 29.94 in 10.0 mi NW 11.5 mph - N/A   Clear
7:54 PM 59.0 °F 39.9 °F 49% 29.96 in 10.0 mi NW 17.3 mph 26.5 mph N/A   Partly Cloudy
8:54 PM 55.0 °F 36.0 °F 49% 29.99 in 10.0 mi NNW 19.6 mph 31.1 mph N/A   Clear
9:54 PM 52.0 °F 35.1 °F 53% 30.01 in 10.0 mi NNW 12.7 mph - N/A   Clear
10:54 PM 50.0 °F 34.0 °F 54% 30.04 in 10.0 mi NNW 17.3 mph - N/A   Clear
11:54 PM 48.0 °F 34.0 °F 58% 30.06 in 10.0 mi NNW 13.8 mph 24.2 mph N/A   Clear